"Time","Temp","Dewpoint","Humidity","Pressure","Direction","Speed","Gust","Precip","PrecipRate"
"00:04:56","41.3","34","75","30.37","123","0","1.2","0.00","0.00"
"00:09:58","41.3","34.2","75.6","30.37","123","0.1","2.3","0.00","0.00"
"00:14:57","41.3","34.3","76","30.37","123","0","1.2","0.00","0.00"
"00:19:59","41.5","34.5","76","30.36","123","0.1","2","0.00","0.00"
"00:24:58","41.9","34.5","74.8","30.36","123","0.2","2.3","0.00","0.00"
"00:29:56","41.6","33.8","73.7","30.36","123","0.4","2.3","0.00","0.00"
"00:34:58","41.6","34.5","75.9","30.36","123","0.8","2.3","0.00","0.00"
"00:39:57","41.9","34.6","75.2","30.36","124","0.8","4","0.00","0.00"
"00:44:59","42.2","35","75.6","30.36","152","1.6","6","0.00","0.00"
"00:49:57","42.8","35.8","76","30.35","183","2.2","7","0.00","0.00"
"00:54:59","43.6","36.3","75.5","30.35","192","2.7","5.8","0.00","0.00"
"00:59:57","44.4","36.9","75","30.35","163","2.1","5","0.00","0.00"
"01:04:58","45","37.2","74","30.34","180","2.6","6","0.00","0.00"
"01:09:57","45.4","37.6","74","30.34","158","1.8","4","0.00","0.00"
"01:14:59","45.9","38.1","74","30.34","178","2.6","10.4","0.00","0.00"
"01:19:57","46.4","38.4","73.5","30.34","176","2","5.8","0.00","0.00"
"01:24:58","46.8","38.9","74","30.34","165","2.6","8.1","0.00","0.00"
"01:29:56","47.3","39.1","73.2","30.34","133","2.1","6","0.00","0.00"
"01:34:58","47.8","39.6","73","30.33","177","3","6","0.00","0.00"
"01:39:57","48.2","39.9","73","30.33","185","2.6","7","0.00","0.00"
"01:44:58","48.5","40.2","73","30.33","186","4","14","0.00","0.00"
"01:49:57","48.8","40.5","73","30.33","181","1.8","4","0.00","0.00"
"01:54:59","48.8","40.5","73","30.33","179","2.5","7","0.00","0.00"
"01:59:57","49.1","40.8","73","30.33","160","1.8","4","0.00","0.00"
"02:04:58","49.3","41","73","30.33","211","2.2","5","0.00","0.00"
"02:09:56","49.4","41.1","73.1","30.33","218","1.9","5","0.00","0.00"
"02:14:58","49.6","41.3","73.1","30.33","148","1.7","4.6","0.00","0.00"
"02:19:57","49.7","41.6","73.5","30.32","175","2.7","10","0.00","0.00"
"02:24:59","50","42","73.8","30.32","201","2.8","10.4","0.00","0.00"
"02:29:57","50.2","42.2","74","30.32","187","2.8","10.4","0.00","0.00"
"02:34:59","50.4","42.4","74","30.31","188","3.1","6","0.00","0.00"
"02:39:57","50.5","42.5","74","30.31","222","3.8","11","0.00","0.00"
"02:44:59","50.6","42.5","73.7","30.31","194","3.6","11.5","0.00","0.00"
"02:49:57","50.7","42.7","74","30.31","188","3.1","11","0.00","0.00"
"02:54:59","50.7","42.7","74","30.31","193","3","9.2","0.00","0.00"
"02:59:57","50.7","42.7","74","30.31","188","2.3","9.2","0.00","0.00"
"03:04:56","50.8","42.8","74","30.30","205","1.1","4","0.00","0.00"
"03:09:57","50.7","43","74.8","30.30","194","3","9.2","0.00","0.00"
"03:14:56","50.7","43.1","75","30.30","212","3","7","0.00","0.00"
"03:19:58","50.8","43.2","75","30.29","194","3.4","10.4","0.00","0.00"
"03:24:56","50.9","43.3","75","30.29","190","3.4","7","0.00","0.00"
"03:29:58","51","43.4","75","30.29","193","2.5","5","0.00","0.00"
"03:34:57","51","43.4","75","30.29","199","2.3","6","0.00","0.00"
"03:39:59","51","43.4","75","30.29","207","3.1","6","0.00","0.00"
"03:44:57","51.1","43.5","75.4","30.29","207","3","9.2","0.00","0.00"
"03:49:56","51.1","43.8","76","30.28","195","3","7","0.00","0.00"
"03:54:58","51.1","43.5","75.2","30.28","180","1.8","5","0.00","0.00"
"03:59:56","51","43.7","76","30.29","182","1.9","4.6","0.00","0.00"
"04:04:58","50.9","43.6","76","30.29","201","3.5","9.2","0.00","0.00"
"04:09:56","50.9","43.6","76","30.29","183","1.8","6.9","0.00","0.00"
"04:14:58","50.9","43.6","76","30.29","172","0.5","2.3","0.00","0.00"
"04:19:56","50.8","43.5","76","30.28","166","1.4","4","0.00","0.00"
"04:24:59","50.7","43.4","76","30.28","172","2.5","5","0.00","0.00"
"04:29:56","50.8","43.5","76","30.28","193","2.8","11.5","0.00","0.00"
"04:34:59","50.7","43.4","76","30.28","199","1.4","4","0.00","0.00"
"04:39:57","50.7","43.7","76.8","30.28","184","3.5","7","0.00","0.00"
"04:44:59","50.8","43.6","76.2","30.28","210","2.3","6","0.00","0.00"
"04:49:57","50.8","43.5","76","30.28","190","2.4","7","0.00","0.00"
"04:54:56","50.7","43.7","76.9","30.28","177","2.4","7","0.00","0.00"
"04:59:58","50.7","43.8","77","30.28","174","4","9.2","0.00","0.00"
"05:04:59","50.8","43.7","76.8","30.28","177","2.5","9","0.00","0.00"
"05:09:57","50.7","43.8","77","30.28","182","2.7","9.2","0.00","0.00"
"05:14:59","50.5","43.6","77","30.28","171","2.6","5","0.00","0.00"
"05:19:57","50.4","43.5","77","30.27","177","2.2","5","0.00","0.00"
"05:24:59","50.3","43.7","77.9","30.27","176","2.6","6","0.00","0.00"
"05:29:57","50.3","43.7","78","30.27","173","2.8","5","0.00","0.00"
"05:34:59","50.3","43.7","78","30.26","183","3.2","9","0.00","0.00"
"05:39:57","50.2","43.6","78","30.26","201","3","9.2","0.00","0.00"
"05:44:59","50.2","43.6","78","30.26","190","3.4","9.2","0.00","0.00"
"05:49:57","50.1","43.5","78","30.26","188","2.7","7","0.00","0.00"
"05:54:59","50","43.7","79","30.26","186","3.3","7","0.00","0.00"
"05:59:57","50.1","43.7","78.8","30.26","187","3.3","9","0.00","0.00"
"06:04:59","50.1","43.8","79","30.25","198","3.5","9.2","0.00","0.00"
"06:09:58","50.2","43.9","79","30.25","198","3.2","13","0.00","0.00"
"06:14:56","50.4","44.1","79","30.25","189","4","12.7","0.00","0.00"
"06:19:58","50.5","44.2","79","30.25","213","4.5","11.5","0.00","0.00"
"06:24:56","50.7","44.1","78","30.25","191","5.7","13","0.00","0.00"
"06:29:58","50.9","44.3","78","30.25","198","4.6","11.5","0.00","0.00"
"06:34:56","51","44.4","78","30.24","194","5.3","11.5","0.00","0.00"
"06:39:59","51","44.4","78","30.24","196","4.5","11.5","0.00","0.00"
"06:44:57","50.8","44.2","78","30.24","195","4.6","10.4","0.00","0.00"
"06:49:59","50.8","44.2","78","30.23","194","5.6","14","0.00","0.00"
"06:54:58","50.9","44.3","78","30.23","194","6.9","13.8","0.00","0.00"
"06:59:59","51","44.4","78","30.23","191","6.7","16.1","0.00","0.00"
"07:04:57","50.9","44.3","78","30.23","199","6.1","13","0.00","0.00"
"07:09:58","50.9","44.3","78","30.23","187","5.5","12","0.00","0.00"
"07:14:57","51","44.4","78","30.23","192","6.5","13","0.00","0.00"
"07:19:59","51","44.4","78","30.23","199","6.7","15","0.00","0.00"
"07:24:57","51.1","44.7","78.5","30.23","188","6","15","0.00","0.00"
"07:29:59","51.2","44.8","78.5","30.23","189","7.2","15","0.00","0.00"
"07:34:57","51.4","44.9","78.2","30.23","191","8.3","17.3","0.00","0.00"
"07:39:59","51.6","45","78","30.23","184","7.1","16.1","0.00","0.00"
"07:44:57","51.7","45.1","78","30.23","191","6.9","16.1","0.00","0.00"
"07:49:59","51.8","45.2","78","30.23","196","7.4","14","0.00","0.00"
"07:54:57","52","45.4","78","30.23","190","6.8","18.4","0.00","0.00"
"07:59:59","52.2","45.5","78","30.23","197","8.3","17.3","0.00","0.00"
"08:04:59","52.3","45.6","77.8","30.23","179","6.3","14","0.00","0.00"
"08:09:58","52.5","45.7","77.8","30.23","196","7.5","16.1","0.00","0.00"
"08:14:56","52.6","45.6","77","30.23","177","6.3","16.1","0.00","0.00"
"08:19:57","52.7","45.7","77","30.22","177","6.9","15","0.00","0.00"
"08:24:59","52.8","45.8","77","30.22","194","6.7","12.7","0.00","0.00"
"08:29:56","52.9","45.9","77","30.23","189","6.6","13","0.00","0.00"
"08:34:58","53.1","46.1","77","30.23","184","6.5","14","0.00","0.00"
"08:39:56","53.3","46.3","77","30.23","196","6.9","15","0.00","0.00"
"08:44:58","53.6","46.4","76.4","30.23","197","8.5","15","0.00","0.00"
"08:49:56","53.9","46.5","76","30.23","196","8.5","15","0.00","0.00"
"08:54:58","54.1","46.7","76","30.23","206","7.7","15","0.00","0.00"
"08:59:59","54.3","46.8","75.8","30.23","190","8.1","14","0.00","0.00"
"09:04:57","54.4","46.9","75.7","30.22","190","5.4","20","0.00","0.00"
"09:09:58","54.5","46.7","75","30.22","197","8.8","19.6","0.00","0.00"
"09:14:57","54.6","46.9","75.2","30.22","189","5.4","12.7","0.00","0.00"
"09:19:59","54.7","46.9","75.2","30.22","191","4.5","10.4","0.00","0.00"
"09:24:57","54.8","47","75","30.22","201","4.6","11.5","0.00","0.00"
"09:29:59","55","47.2","75","30.22","192","4.9","10.4","0.00","0.00"
"09:34:57","55.1","47.3","74.8","30.22","197","4.9","10.4","0.00","0.00"
"09:39:59","55.3","47.5","75","30.22","192","4","10","0.00","0.00"
"09:44:56","55.5","47.3","74","30.22","197","6.1","13","0.00","0.00"
"09:49:58","55.6","47.6","74.3","30.20","183","5.2","13","0.00","0.00"
"09:54:56","55.8","47.6","74.1","30.20","197","5.7","12","0.00","0.00"
"09:59:58","55.9","47.8","74.1","30.20","193","7.6","15","0.00","0.00"
"10:04:59","56.1","47.9","74","30.19","207","6.6","15","0.00","0.00"
"10:09:56","56.4","48.2","74.2","30.19","222","6.8","14","0.00","0.00"
"10:14:59","56.7","48.5","74","30.19","189","6.6","15","0.00","0.00"
"10:19:57","56.9","48.6","73.8","30.18","198","7.1","17","0.00","0.00"
"10:24:59","57.2","49","74","30.18","180","5.9","16.1","0.00","0.00"
"10:29:56","57.4","49","73.5","30.18","183","7.7","18","0.00","0.00"
"10:34:58","57.5","49.2","73.8","30.16","196","7.4","18.4","0.00","0.00"
"10:39:48","57.8","49.6","74","30.16","185","6.1","14","0.00","0.00"
"10:44:58","58","49.8","74","30.16","189","8.2","17.3","0.00","0.00"
"10:49:58","58.2","50","74","30.15","197","8.2","21","0.00","0.00"
"10:54:56","58.4","50.1","74","30.15","191","8.2","20","0.00","0.00"
"10:59:58","58.6","50.3","74","30.15","199","8.2","20","0.00","0.00"
"11:04:59","58.9","50.3","73.1","30.14","183","9.5","22","0.00","0.00"
"11:09:56","59","50.4","73.2","30.14","199","9.9","20","0.00","0.00"
"11:14:58","59.2","50.8","73.6","30.14","190","8.4","19","0.00","0.00"
"11:19:59","59.6","50.9","73","30.13","193","10.3","19.6","0.00","0.00"
"11:24:57","59.9","51.3","73.1","30.13","200","7.6","15","0.00","0.00"
"11:29:59","60.4","51.5","72.6","30.13","199","7.5","17.3","0.00","0.00"
"11:34:57","60.7","51.5","71.8","30.12","182","6.2","14","0.00","0.00"
"11:39:58","60.7","51.5","71.8","30.12","194","11.7","24.2","0.00","0.00"
"11:44:56","60.5","51.5","72.1","30.12","199","10.8","25.3","0.00","0.00"
"11:49:58","60.7","51.8","72.5","30.12","204","9.8","22","0.00","0.00"
"11:54:55","61","51.9","72","30.12","212","10.4","21","0.00","0.00"
"11:59:57","61.4","52.2","71.7","30.12","192","8.7","19.6","0.00","0.00"
"12:04:58","61.9","52","70","30.11","195","10.5","19.6","0.00","0.00"
"12:09:56","62.6","52.7","70","30.11","199","9.7","19.6","0.00","0.00"
"12:14:58","63","52.6","68.7","30.11","201","10","19","0.00","0.00"
"12:19:56","62.9","52.7","69.2","30.10","200","7.8","18.4","0.00","0.00"
"12:24:57","62.7","52.6","69.3","30.10","184","6.6","13","0.00","0.00"
"12:29:59","62.2","52.1","69.5","30.10","194","7.8","18.4","0.00","0.00"
"12:34:56","61.6","51.9","70.5","30.09","183","7.3","16.1","0.00","0.00"
"12:39:58","61.3","51.9","71.2","30.09","179","5.5","12.7","0.00","0.00"
"12:44:56","61.4","51.9","71","30.09","177","8.2","16","0.00","0.00"
"12:49:58","61.4","51.9","71","30.07","187","6.4","13","0.00","0.00"
"12:54:59","61.3","52.2","71.9","30.07","214","6.1","13","0.00","0.00"
"12:59:57","61.3","52.2","72","30.07","207","5.8","10.4","0.00","0.00"
"13:04:58","61.4","52.3","72","30.06","205","5.7","12","0.00","0.00"
"13:09:56","61.7","52.6","72","30.06","210","4.9","10.4","0.00","0.00"
"13:14:59","62.2","53.1","72","30.06","209","3.9","13","0.00","0.00"
"13:19:57","62.7","53.2","71","30.04","180","5.1","17","0.00","0.00"
"13:24:59","63.2","53.6","71","30.04","211","5.3","17.3","0.00","0.00"
"13:29:56","63.5","53.7","70.4","30.04","209","3.6","11.5","0.00","0.00"
"13:34:58","63.6","53.6","70","30.03","206","5.4","17","0.00","0.00"
"13:39:56","63.8","53.8","70.2","30.03","210","7.4","17.3","0.00","0.00"
"13:44:58","64.1","54.1","70","30.03","220","6.4","16.1","0.00","0.00"
"13:49:59","64.3","54","69.2","30.02","221","7.6","14","0.00","0.00"
"13:54:57","64.3","53.9","69","30.02","199","8.3","14","0.00","0.00"
"13:59:58","64.2","53.8","69","30.02","210","7.1","14","0.00","0.00"
"14:04:59","64.2","53.9","69.4","30.01","194","6.5","13.8","0.00","0.00"
"14:09:57","64.4","54.4","70","30.01","195","5.3","10","0.00","0.00"
"14:14:56","64.9","54.7","69.5","30.01","194","4.8","12","0.00","0.00"
"14:19:57","65.2","54.4","68.2","29.99","214","6","12","0.00","0.00"
"14:24:59","65.1","54.4","68.4","29.99","192","4","11.5","0.00","0.00"
"14:29:56","65","54.4","68.7","29.99","206","3.3","7","0.00","0.00"
"14:34:57","64.9","54.5","69","29.98","194","3.5","7","0.00","0.00"
"14:39:59","64.8","54.4","69","29.98","189","3","7","0.00","0.00"
"14:44:57","64.8","54.4","69","29.98","191","3.3","7","0.00","0.00"
"14:49:59","64.9","54.5","69","29.96","186","2.8","7","0.00","0.00"
"14:54:57","65.1","54.7","69","29.96","174","3.1","7","0.00","0.00"
"14:59:59","65.2","54.8","69","29.96","199","3.2","6.9","0.00","0.00"
"15:04:52","65.4","54.8","68.4","29.95","193","4.1","9","0.00","0.00"
"15:09:58","65.6","54.8","68","29.95","192","4.9","12","0.00","0.00"
"15:14:56","65.8","54.6","67.3","29.95","197","7","17.3","0.00","0.00"
"15:19:57","66","54.7","67","29.93","198","5.6","15","0.00","0.00"
"15:24:59","66.2","54.8","66.8","29.93","209","6.6","15","0.00","0.00"
"15:29:57","66.3","54.6","66","29.93","184","5.3","14","0.00","0.00"
"15:34:58","66.5","54.5","65.2","29.93","198","6.8","13","0.00","0.00"
"15:39:56","66.6","54.5","65","29.93","206","7.4","17.3","0.00","0.00"
"15:44:58","66.9","54.4","64.3","29.93","204","8","18.4","0.00","0.00"
"15:49:56","67","54.4","64","29.92","199","4.9","11.5","0.00","0.00"
"15:54:58","66.9","54.3","64","29.92","199","5.7","14","0.00","0.00"
"15:59:59","67","54.4","64","29.92","186","4.9","11.5","0.00","0.00"
"16:04:56","67.1","54.5","64","29.91","196","4.8","11.5","0.00","0.00"
"16:09:58","67","54.4","64","29.91","192","3.2","6.9","0.00","0.00"
"16:14:56","66.9","54.3","64","29.91","193","3.5","10.4","0.00","0.00"
"16:19:58","66.8","54.2","64","29.90","168","3.3","10.4","0.00","0.00"
"16:24:56","66.8","54.2","64","29.90","170","4.5","11.5","0.00","0.00"
"16:29:58","66.7","54.1","64","29.90","177","3.9","9.2","0.00","0.00"
"16:34:59","66.7","54.1","64","29.89","160","5.3","13","0.00","0.00"
"16:39:57","66.8","54.2","64","29.89","187","4.8","11.5","0.00","0.00"
"16:44:59","66.7","54.1","64","29.89","197","4.2","10.4","0.00","0.00"
"16:49:57","66.6","54.4","64.8","29.87","185","4.7","13","0.00","0.00"
"16:54:59","66.6","54.5","65","29.87","202","4.8","12.7","0.00","0.00"
"16:59:56","66.5","54.4","65","29.87","179","5.2","12","0.00","0.00"
"17:04:57","66.5","54.4","65","29.87","180","6.2","15","0.00","0.00"
"17:09:59","66.6","54.5","65","29.87","187","6.3","15","0.00","0.00"
"17:14:57","66.6","54.5","65.1","29.87","199","4.7","10.4","0.00","0.00"
"17:19:59","66.3","54.9","66.7","29.86","192","5.7","12","0.00","0.00"
"17:24:57","65.9","54.6","67.2","29.86","179","6.6","13","0.00","0.00"
"17:29:59","65.8","54.5","67","29.86","186","6.7","14","0.00","0.00"
"17:34:57","65.8","54.5","67","29.84","180","4.6","10.4","0.00","0.00"
"17:39:59","65.8","54.3","66.6","29.84","177","4.6","10","0.00","0.00"
"17:44:57","65.8","54.2","66.4","29.84","177","4.2","12","0.00","0.00"
"17:49:59","65.9","54.2","66","29.84","173","4.2","10.4","0.00","0.00"
"17:54:58","65.9","54.2","66","29.84","181","4","9","0.00","0.00"
"17:59:56","66","54","65.2","29.84","172","4.7","13","0.00","0.00"
"18:04:58","66","53.9","65","29.83","177","3.7","11.5","0.00","0.00"
"18:09:56","65.9","53.8","65","29.83","177","3.7","10","0.00","0.00"
"18:14:58","65.9","53.8","65","29.83","182","3.9","10.4","0.00","0.00"
"18:19:57","66","53.8","64.8","29.81","184","4.6","9.2","0.00","0.00"
"18:24:59","66.1","53.7","64.2","29.81","171","5","10","0.00","0.00"
"18:29:57","66.2","53.7","64","29.81","168","4.3","11.5","0.00","0.00"
"18:34:59","66.2","53.7","64","29.78","159","4.8","11.5","0.00","0.00"
"18:39:57","66.2","53.7","64","29.78","150","4.3","12","0.00","0.00"
"18:44:59","66.1","53.4","63.7","29.78","161","5","11.5","0.00","0.00"
"18:49:58","66.1","53.3","63.3","29.74","159","4.3","11.5","0.00","0.00"
"18:54:56","66.2","53.2","63","29.74","165","6.3","13","0.00","0.00"
"18:59:58","66.4","53.2","62.4","29.76","187","6.7","16","0.00","0.00"
"19:04:59","66.5","53.1","62","29.76","178","5.8","16.1","0.00","0.00"
"19:09:57","66.6","53.2","61.9","29.76","163","5.3","15","0.00","0.00"
"19:14:56","66.7","52.8","61","29.76","172","8.4","22","0.00","0.00"
"19:19:58","66.9","53","61","29.74","174","7.2","17.3","0.00","0.00"
"19:24:56","67.1","53.1","60.9","29.74","182","9.1","22","0.00","0.00"
"19:29:58","67.2","52.8","60","29.75","196","8.7","20","0.00","0.00"
"19:34:56","67.2","52.8","60","29.75","185","7.8","19.6","0.00","0.00"
"19:39:58","67.3","52.7","59.7","29.75","180","7.6","15","0.00","0.00"
"19:44:56","67.4","52.7","59.4","29.75","173","6.1","14","0.00","0.00"
"19:49:58","67.3","52.9","59.9","29.74","195","7.3","20","0.00","0.00"
"19:54:56","67.2","52.8","60","29.74","186","7.3","19.6","0.00","0.00"
"19:59:58","67.2","52.8","60","29.74","202","8.7","23","0.00","0.00"
"20:04:59","67.2","52.8","60","29.73","183","6.7","16.1","0.00","0.00"
"20:09:57","67.2","52.8","60","29.73","182","7.4","20","0.00","0.00"
"20:14:59","67.3","52.9","60","29.73","193","7.8","21","0.00","0.00"
"20:19:57","67.2","52.8","60","29.73","188","7.1","20.7","0.00","0.00"
"20:24:59","67.1","52.7","60","29.73","181","5.2","14","0.00","0.00"
"20:29:57","67.1","52.8","60.2","29.73","186","4.6","11.5","0.00","0.00"
"20:34:59","67","53.1","61","29.73","177","6.2","18.4","0.00","0.00"
"20:39:58","67","53.1","61","29.73","192","7.5","20.7","0.00","0.00"
"20:44:56","66.9","53","61","29.73","189","7.2","14","0.00","0.00"
"20:49:58","66.9","53","61","29.73","191","6.8","18","0.00","0.00"
"20:54:56","67","53.1","61","29.73","192","7.7","19.6","0.00","0.00"
"20:59:58","67","53.1","61","29.73","189","8.7","19.6","0.00","0.00"
"21:04:59","67","53.1","61","29.73","187","8.9","19.6","0.00","0.00"
"21:09:57","67","53.1","61","29.73","183","8.5","19.6","0.00","0.00"
"21:14:59","67","53.1","61","29.73","186","8.4","15","0.00","0.00"
"21:19:57","67","53.1","61","29.70","183","7.6","16.1","0.00","0.00"
"21:24:58","66.8","52.9","61","29.70","182","8.1","16.1","0.00","0.00"
"21:29:56","66.8","52.9","61","29.70","174","5.3","15","0.00","0.00"
"21:34:58","66.7","52.9","61.2","29.69","189","7.8","15","0.00","0.00"
"21:39:59","66.7","53","61.3","29.69","187","7.6","15","0.00","0.00"
"21:44:57","66.7","53","61.5","29.70","181","6.7","17.3","0.00","0.00"
"21:49:59","66.7","53.2","61.8","29.70","189","5.7","12","0.00","0.00"
"21:54:57","66.6","53.2","62","29.70","188","5.9","16.1","0.00","0.00"
"21:59:59","66.5","53.1","62","29.70","184","4.8","10","0.00","0.00"
"22:04:59","66.4","53","62","29.69","182","6.8","15","0.00","0.00"
"22:09:57","66.5","53.1","62","29.69","188","6.4","16.1","0.00","0.00"
"22:14:59","66.4","53","62.2","29.69","194","7.6","15","0.00","0.00"
"22:19:57","66.3","53.3","63","29.68","180","7.5","15","0.00","0.00"
"22:24:59","66.3","53.2","62.6","29.68","195","7","16.1","0.00","0.00"
"22:29:57","66.3","53.3","63","29.68","182","6.3","17.3","0.00","0.00"
"22:34:58","66.2","53.2","63","29.67","185","8","16.1","0.00","0.00"
"22:39:57","66.1","53.1","63","29.67","195","7.7","18.4","0.00","0.00"
"22:44:58","66","53","63","29.67","190","6.5","12","0.00","0.00"
"22:49:56","65.9","52.9","63","29.66","191","7.4","16.1","0.00","0.00"
"22:54:58","65.9","53.3","63.8","29.66","193","7.7","17.3","0.00","0.00"
"22:59:56","65.9","53.4","64","29.66","199","9.7","17.3","0.00","0.00"
"23:04:57","66.1","53.3","63.5","29.65","181","8.2","15","0.00","0.00"
"23:09:58","66.1","53.6","64","29.65","187","7","16.1","0.00","0.00"
"23:14:56","66.1","53.6","64","29.65","183","7","14","0.00","0.00"
"23:19:58","66.1","53.6","64","29.64","195","7.9","18","0.00","0.00"
"23:24:56","66","53.5","64","29.64","187","6.9","18","0.00","0.00"
"23:29:58","66","53.6","64.1","29.64","189","8.7","21","0.00","0.00"
"23:34:56","66.1","53.8","64.5","29.62","191","7.6","20.7","0.00","0.00"
"23:39:58","66.1","54","65","29.62","190","8.9","20","0.00","0.00"
"23:44:59","66.3","54.2","65","29.62","190","9.8","19.6","0.00","0.00"
"23:49:56","66.4","54.3","65","29.62","183","7.2","16.1","0.00","0.00"
"23:54:58","66.3","54.2","65","29.62","193","7.7","15","0.00","0.00"
"23:59:56","66.3","54.4","65.3","29.62","183","7.1","15","0.00","0.00"
